Columbus, NE

3:21 PM CDT on October 19, 2017 (GMT -0500)
Columbus Municipal

Weather History for KOLU - December, 2013

Change the Weather History Date:

Sunday, December 22, 2013

  Actual Average Record
Temperature  
Mean Temperature 14 °F -  
Max Temperature 21 °F 31 °F 63 °F (1954)
Min Temperature 6 °F 15 °F -24 °F (1983)
Degree Days  
Heating Degree Days 50    
Moisture  
Dew Point 4 °F    
Average Humidity 65    
Maximum Humidity 79    
Minimum Humidity 46    
Precipitation  
Precipitation 0.00 in - - ()
Sea Level Pressure  
Sea Level Pressure 30.14 in    
Wind  
Wind Speed 14 mph (NNW)    
Max Wind Speed 21 mph    
Max Gust Speed 24 mph    
Visibility 10 miles    
Events      
Averages and records for this station are not official NWS values.
T = Trace of Precipitation, MM = Missing Value Source: NWS Daily Summary

Daily Weather History Graph

Daily Weather History Graph

Search for Another Location

Airport or City:

Trip Planner

Search our weather history database for the weather conditions in past years. The results will help you decide how hot, cold, wet, or windy it might be!

Date:

Astronomy

Dec. 22, 2013 Rise Set
Actual Time 7:52 AM CST 5:03 PM CST
Civil Twilight 7:21 AM CST 5:34 PM CST
Nautical Twilight 6:46 AM CST 6:09 PM CST
Astronomical Twilight 6:12 AM CST 6:43 PM CST
Moon 10:20 PM CST (12/22) 10:46 AM CST (12/22)
Length of Visible Light 10h 13m
Length of Day
9h 10m
Waning Gibbous, 76% of the Moon is Illuminated
Dec 22
Waning Gibbous
Dec 25
Last Quarter
Jan 1
New
Jan 7
First Quarter
Jan 15
Full

Hourly Weather History & Observations

Time (CST) Temp. Windchill Dew Point Humidity Pressure Visibility Wind Dir Wind Speed Gust Speed Precip Events Conditions
12:15 AM 19.4 °F 5.5 °F 12.2 °F 74% 29.90 in 10.0 mi NNW 15.0 mph - N/A   Overcast
12:35 AM 19.4 °F 5.5 °F 12.2 °F 74% 29.90 in 10.0 mi NNW 15.0 mph - N/A   Overcast
12:55 AM 17.6 °F 3.2 °F 10.4 °F 73% 29.91 in 10.0 mi NNW 15.0 mph - N/A   Overcast
1:15 AM 15.8 °F 0.3 °F 8.6 °F 73% 29.92 in 10.0 mi NNW 16.1 mph - N/A   Overcast
1:35 AM 15.8 °F 0.9 °F 8.6 °F 73% 29.92 in 10.0 mi NNW 15.0 mph 21.9 mph N/A   Overcast
1:55 AM 15.8 °F 2.1 °F 8.6 °F 73% 29.93 in 10.0 mi NNW 12.7 mph - N/A   Overcast
2:15 AM 15.8 °F 2.1 °F 8.6 °F 73% 29.94 in 10.0 mi North 12.7 mph - N/A   Overcast
2:35 AM 17.6 °F 2.7 °F 8.6 °F 68% 29.96 in 10.0 mi NNW 16.1 mph 19.6 mph N/A   Overcast
2:55 AM 15.8 °F 0.3 °F 8.6 °F 73% 29.97 in 10.0 mi NNW 16.1 mph - N/A   Overcast
3:15 AM 15.8 °F -0.2 °F 8.6 °F 73% 29.98 in 10.0 mi NNW 17.3 mph - N/A   Overcast
3:35 AM 15.8 °F -0.2 °F 8.6 °F 73% 29.98 in 10.0 mi NW 17.3 mph - N/A   Overcast
3:55 AM 15.8 °F -1.1 °F 6.8 °F 68% 29.99 in 10.0 mi NW 19.6 mph - N/A   Overcast
4:15 AM 15.8 °F -0.6 °F 6.8 °F 68% 29.99 in 10.0 mi NW 18.4 mph 21.9 mph N/A   Overcast
4:35 AM 14.0 °F -2.0 °F 6.8 °F 73% 30.00 in 10.0 mi NNW 16.1 mph 21.9 mph N/A   Scattered Clouds
4:55 AM 12.2 °F -4.3 °F 6.8 °F 79% 29.99 in 10.0 mi NW 16.1 mph - N/A   Clear
5:15 AM 12.2 °F -4.3 °F 6.8 °F 79% 30.00 in 10.0 mi NNW 16.1 mph - N/A   Partly Cloudy
5:35 AM 12.2 °F -4.3 °F 6.8 °F 79% 30.00 in 10.0 mi NNW 16.1 mph 20.7 mph N/A   Clear
5:55 AM 12.2 °F -3.1 °F 5.0 °F 73% 30.00 in 10.0 mi NNW 13.8 mph - N/A   Clear
6:15 AM 12.2 °F -2.5 °F 6.8 °F 79% 30.01 in 10.0 mi NW 12.7 mph 19.6 mph N/A   Scattered Clouds
6:35 AM 14.0 °F -3.4 °F 6.8 °F 73% 30.02 in 10.0 mi NW 19.6 mph 24.2 mph N/A   Overcast
6:55 AM 14.0 °F -3.9 °F 6.8 °F 73% 30.04 in 10.0 mi NW 20.7 mph - N/A   Overcast
7:15 AM 12.2 °F -2.5 °F 5.0 °F 73% 30.05 in 10.0 mi NW 12.7 mph - N/A   Overcast
7:35 AM 10.4 °F -6.6 °F 3.2 °F 73% 30.06 in 10.0 mi NW 16.1 mph - N/A   Scattered Clouds
7:55 AM 10.4 °F -4.1 °F 1.4 °F 67% 30.07 in 10.0 mi NW 11.5 mph - N/A   Clear
8:15 AM 8.6 °F -7.0 °F 3.2 °F 79% 30.08 in 10.0 mi NW 12.7 mph - N/A   Clear
8:35 AM 10.4 °F -4.1 °F 3.2 °F 73% 30.09 in 10.0 mi NW 11.5 mph - N/A   Clear
8:55 AM 10.4 °F -4.8 °F 1.4 °F 67% 30.09 in 10.0 mi NW 12.7 mph - N/A   Clear
9:15 AM 10.4 °F -4.1 °F 3.2 °F 73% 30.10 in 10.0 mi NW 11.5 mph - N/A   Clear
9:35 AM 12.2 °F -3.7 °F 3.2 °F 67% 30.11 in 10.0 mi NW 15.0 mph - N/A   Clear
9:55 AM 12.2 °F -4.8 °F 3.2 °F 67% 30.12 in 10.0 mi NW 17.3 mph - N/A   Clear
10:15 AM 14.0 °F -1.4 °F 3.2 °F 62% 30.13 in 10.0 mi NW 15.0 mph - N/A   Clear
10:35 AM 15.8 °F 1.4 °F 3.2 °F 58% 30.13 in 10.0 mi NNW 13.8 mph - N/A   Clear
10:55 AM 15.8 °F 0.9 °F 3.2 °F 58% 30.14 in 10.0 mi NNW 15.0 mph - N/A   Clear
11:15 AM 15.8 °F 3.4 °F 3.2 °F 58% 30.15 in 10.0 mi NW 10.4 mph - N/A   Clear
11:35 AM 17.6 °F 3.7 °F 3.2 °F 53% 30.15 in 10.0 mi NW 13.8 mph - N/A   Clear
11:55 AM 17.6 °F 3.7 °F 3.2 °F 53% 30.15 in 10.0 mi NNW 13.8 mph - N/A   Clear
12:15 PM 17.6 °F 4.3 °F 5.0 °F 58% 30.15 in 10.0 mi NNW 12.7 mph - N/A   Clear
12:35 PM 19.4 °F 7.2 °F 5.0 °F 54% 30.15 in 10.0 mi NNW 11.5 mph 17.3 mph N/A   Clear
12:55 PM 19.4 °F 6.6 °F 5.0 °F 54% 30.14 in 10.0 mi NNW 12.7 mph - N/A   Clear
1:15 PM 19.4 °F 6.0 °F 5.0 °F 54% 30.14 in 10.0 mi NW 13.8 mph 19.6 mph N/A   Clear
1:35 PM 19.4 °F 6.0 °F 5.0 °F 54% 30.15 in 10.0 mi NNW 13.8 mph - N/A   Clear
1:55 PM 19.4 °F 6.0 °F 5.0 °F 54% 30.14 in 10.0 mi NW 13.8 mph - N/A   Clear
2:15 PM 19.4 °F 7.2 °F 5.0 °F 54% 30.14 in 10.0 mi NNW 11.5 mph 16.1 mph N/A   Clear
2:35 PM 19.4 °F 6.6 °F 3.2 °F 49% 30.15 in 10.0 mi NNW 12.7 mph - N/A   Clear
2:55 PM 21.2 °F 7.3 °F 5.0 °F 50% 30.16 in 10.0 mi NW 16.1 mph - N/A   Clear
3:15 PM 21.2 °F 7.8 °F 3.2 °F 46% 30.17 in 10.0 mi NNW 15.0 mph 23.0 mph N/A   Clear
3:35 PM 19.4 °F 5.5 °F 3.2 °F 49% 30.19 in 10.0 mi NNW 15.0 mph - N/A   Clear
3:55 PM 19.4 °F 7.9 °F 3.2 °F 49% 30.18 in 10.0 mi NNW 10.4 mph - N/A   Clear
4:15 PM 19.4 °F 7.2 °F 3.2 °F 49% 30.20 in 10.0 mi NNW 11.5 mph - N/A   Clear
4:35 PM 17.6 °F 7.3 °F 3.2 °F 53% 30.20 in 10.0 mi North 8.1 mph - N/A   Clear
4:55 PM 17.6 °F 5.0 °F 1.4 °F 49% 30.21 in 10.0 mi North 11.5 mph - N/A   Clear
5:15 PM 15.8 °F 6.1 °F 1.4 °F 53% 30.21 in 10.0 mi North 6.9 mph - N/A   Clear
5:35 PM 12.2 °F 1.7 °F 1.4 °F 62% 30.21 in 10.0 mi North 6.9 mph - N/A   Clear
5:55 PM 10.4 °F -1.5 °F -0.4 °F 62% 30.22 in 10.0 mi NNE 8.1 mph - N/A   Clear
6:15 PM 10.4 °F -1.5 °F 1.4 °F 67% 30.25 in 10.0 mi NNW 8.1 mph - N/A   Clear
6:35 PM 10.4 °F -0.4 °F -0.4 °F 62% 30.26 in 10.0 mi NNW 6.9 mph - N/A   Clear
6:55 PM 10.4 °F -0.4 °F -0.4 °F 62% 30.28 in 10.0 mi NNW 6.9 mph - N/A   Clear
7:15 PM 10.4 °F -2.4 °F 1.4 °F 67% 30.29 in 10.0 mi NNW 9.2 mph - N/A   Clear
7:35 PM 10.4 °F -0.4 °F -0.4 °F 62% 30.30 in 10.0 mi NNW 6.9 mph - N/A   Clear
7:55 PM 8.6 °F -2.6 °F -0.4 °F 67% 30.30 in 10.0 mi NNW 6.9 mph - N/A   Clear
8:15 PM 8.6 °F -1.3 °F -0.4 °F 67% 30.30 in 10.0 mi NNW 5.8 mph - N/A   Partly Cloudy
8:35 PM 8.6 °F -5.5 °F -0.4 °F 67% 30.31 in 10.0 mi NNW 10.4 mph - N/A   Clear
8:55 PM 8.6 °F -6.3 °F -0.4 °F 67% 30.32 in 10.0 mi NNW 11.5 mph - N/A   Clear
9:15 PM 8.6 °F -7.0 °F -0.4 °F 67% 30.33 in 10.0 mi NNW 12.7 mph - N/A   Partly Cloudy
9:35 PM 8.6 °F -6.3 °F -0.4 °F 67% 30.33 in 10.0 mi NNW 11.5 mph 19.6 mph N/A   Partly Cloudy
9:55 PM 8.6 °F -3.7 °F -0.4 °F 67% 30.34 in 10.0 mi NW 8.1 mph - N/A   Clear
10:15 PM 8.6 °F -7.0 °F -0.4 °F 67% 30.34 in 10.0 mi NNW 12.7 mph - N/A   Clear
10:35 PM 8.6 °F -8.3 °F -0.4 °F 67% 30.35 in 10.0 mi NNW 15.0 mph 19.6 mph N/A   Clear
10:55 PM 8.6 °F -7.0 °F -0.4 °F 67% 30.36 in 10.0 mi NNW 12.7 mph - N/A   Mostly Cloudy
11:15 PM 8.6 °F -10.0 °F -0.4 °F 67% 30.37 in 7.0 mi NNW 18.4 mph 24.2 mph N/A   Mostly Cloudy
11:35 PM 8.6 °F -9.5 °F -0.4 °F 67% 30.38 in 9.0 mi NW 17.3 mph - N/A   Mostly Cloudy
11:55 PM 6.8 °F -13.4 °F -2.2 °F 67% 30.38 in 10.0 mi NW 20.7 mph - N/A   Partly Cloudy